034  
ASUS43 KOAX 262113  
RWRNE  
 
WEATHER ROUNDUP FOR NEBRASKA  
NATIONAL WEATHER SERVICE OMAHA NE  
300 PM CST SAT NOV 26 2022  
 
NOTES: SATELLITE DATA IS BEING USED TO AUGMENT CLOUD COVER ABOVE  
12000 FEET.  
"FAIR" INDICATES FEW OR NO CLOUDS BELOW 12,000 FEET WITH NO  
SIGNIFICANT WEATHER AND/OR S TO VISIBILITY
.  
 
 
NEZ001>004-019>022-054>056-262200-  
NEBRASKA PANHANDLE  
 
CITY SKY/WX TMP DP RH WIND PRES REMARKS
 
SCOTTSBLUFF SUNNY 58 22 24 N17G24 29.87S  
ALLIANCE MOSUNNY 54 24 31 N23 29.85R  
CHADRON SUNNY 54 27 35 NE22 29.89S  
GORDON MOSUNNY 49 26 40 N28 29.87R  
KIMBALL SUNNY 54 20 26 N22G28 29.86R  
SIDNEY MOSUNNY 55 22 27 N25G37 29.82R  

 
 
NEZ057>060-069>072-079>082-262200-  
SOUTHWEST NEBRASKA  
 
CITY SKY/WX TMP DP RH WIND PRES REMARKS
 
NORTH PLATTE SUNNY 62 24 23 N18G28 29.76S  
GRANT FAIR 59 23 25 NE25 29.77S  
IMPERIAL SUNNY 62 21 20 N20G28 29.74F  
LEXINGTON MOSUNNY 60 20 21 NW10 29.74F  
MCCOOK PTSUNNY 61 18 18 NW6 29.73F  
OGALLALA SUNNY 61 25 26 NE21G29 29.79S  

 
 
NEZ005>010-023>029-035>040-094-262200-  
NORTH CENTRAL NEBRASKA  
 
CITY SKY/WX TMP DP RH WIND PRES REMARKS
 
VALENTINE MOSUNNY 53 29 39 N24G33 29.83R  
AINSWORTH SUNNY 55 29 36 N29 29.81R  
BROKEN BOW MOSUNNY 60 25 26 N14G26 29.75S  
O'NEILL MOSUNNY 53 27 36 N10G18 29.79S  
ORD MOSUNNY 61 25 25 N16 29.74R  
THEDFORD SUNNY 57 28 33 N20G28 29.81R  

 
 
NEZ041-046>049-061>064-073>077-083>087-262200-  
SOUTH CENTRAL NEBRASKA  
 
CITY SKY/WX TMP DP RH WIND PRES REMARKS
 
GRAND ISLAND PTSUNNY 58 19 22 SW10 29.72F  
AURORA PTSUNNY 59 20 22 S13 29.72F  
HASTINGS PTSUNNY 58 19 22 S12 29.73F  
HEBRON CLOUDY 54 27 35 SW10 29.75F  
HOLDREGE PTSUNNY 59 19 20 SW9 29.72S  
KEARNEY PTSUNNY 58 18 21 W9 29.72F  
YORK PTSUNNY 55 21 26 S15 29.73F  

 
 
NEZ011>018-030>034-042>045-262200-  
NORTHEAST NEBRASKA  
 
CITY SKY/WX TMP DP RH WIND PRES REMARKS
 
NORFOLK MOSUNNY 60 19 20 W12 29.73R  
ALBION MOSUNNY 59 20 22 W7 29.74R  
BLAIR MOSUNNY 56 26 32 S15 29.73F  
COLUMBUS PTSUNNY 60 20 21 SW9 29.73F  
FREMONT PTSUNNY 57 26 29 S15 29.73F  
TEKAMAH PTSUNNY 60 25 26 S14 29.72F  
WAYNE MOSUNNY 58 20 23 SW9 29.72  

 
 
NEZ050>053-065>068-078-088>093-262200-  
SOUTHEAST NEBRASKA  
 
CITY SKY/WX TMP DP RH WIND PRES REMARKS
 
LINCOLN PTSUNNY 60 23 24 S14 29.75F  
OMAHA EPPLEY PTSUNNY 57 30 35 S10 29.73F  
BEATRICE CLOUDY 53 31 42 S10 29.76F  
FALLS CITY CLOUDY 52 36 54 S7 29.78F  
NEBRASKA CITY CLOUDY 52 33 47 S9 29.79S  
PLATTSMOUTH PTSUNNY 55 29 37 S12 29.77F  

 
 
NEZ044-045-051>053-067-262200-  
OMAHA AREA  
 
CITY SKY/WX TMP DP RH WIND PRES REMARKS
 
OMAHA EPPLEY PTSUNNY 57 30 35 S10 29.73F  
BLAIR MOSUNNY 56 26 32 S15 29.73F  
FREMONT PTSUNNY 57 26 29 S15 29.73F  
MILLARD MOSUNNY 57 26 30 S10 29.75F  
OFFUTT AFB SUNNY 58 23 26 S13 29.77F  
PLATTSMOUTH PTSUNNY 55 29 37 S12 29.77F  
WAHOO PTSUNNY 57 28 33 S13 29.74F  

 
 
 
CLICK HERE TO GO TO PREVIOUS BULLETINS.

The Nexlab NE Page Main Text Page